Location: Thunder Bay
(48.4000°N, 89.2330°W)
Time: 21:55:21
(UTC-04:00)

ISS - Pass Details

Date: 28 June 2021
Orbit: 419 x 421 km, 51.6° (Epoch: 02 August)

Event Time Altitude Azimuth Distance (km) Brightness Sun altitude
Exits shadow 05:14:52 - 201° (SSW) 1,774 -1.2 -6.2°
Reaches altitude 10° 05:15:40 10° 194° (SSW) 1,494 -1.5 -6.1°
Maximum altitude 05:18:22 23° 141° (SE) 954 -2.0 -5.8°
Drops below altitude 10° 05:21:04 10° 87° (E) 1,501 -0.2 -5.5°
Sets 05:23:27 0° 72° (ENE) 2,369 1.4 -5.2°
